#timestamp,LO_Frequency,Hit,StdDev 
1523959215.8,286046995.1,N
1523959235.7,286046997.5,N
1523959255.5,286046996.6,N
1523959275.3,286046997.0,N
1523959295.2,286046996.6,N
1523959315.9,286046997.2,N
1523959335.7,286046997.6,N
1523959355.6,286046995.3,N
1523959375.4,286046996.4,N
1523959395.2,286046994.9,N
1523959415.1,286046995.0,N
1523959416.0,286046995.0,N
1523959435.8,286046995.5,N
1523959455.7,286046995.5,N
1523959475.5,286046995.1,N
1523959495.3,286046998.0,N
1523959515.2,286046998.0,N
1523959535.0,286046997.9,N
1523959535.9,286046997.9,N
1523959555.8,286046994.9,Y
1523959575.6,286046998.8,P
1523959595.4,286046998.1,N
1523959615.3,286046998.1,P
1523959635.1,286046998.3,Y
1523959655.8,286047000.3,P
1523959675.7,286046998.2,N
1523959695.5,286047000.3,N
1523959715.4,286047000.9,N
1523959735.2,286047000.2,N
1523959755.0,286047002.3,N
1523959755.9,286047002.3,N
1523959775.8,286046999.7,N
1523959795.6,286047000.4,N
1523959815.4,286047000.2,N
1523959835.3,286046999.9,N
1523959855.1,286047002.7,N
1523959875.9,286046999.7,N
1523959895.7,286047000.3,N
1523959915.5,286047002.7,N
1523959935.4,286047002.8,N
1523959955.2,286047002.8,N
1523959975.0,286047002.6,N
1523959975.9,286047002.6,N
1523959995.8,286047001.4,N
1523960015.6,286047004.4,N
1523960035.5,286047001.5,N
1523960055.3,286047001.9,N
1523960075.1,286047003.2,N
1523960095.9,286047001.8,N
1523960115.7,286047002.6,N
1523960135.6,286047001.9,N
1523960155.4,286047003.5,N
1523960175.2,286047004.1,N
1523960195.1,286047002.9,N
1523960196.0,286047002.9,N
1523960215.8,286047003.8,N
1523960235.6,286047003.9,N
1523960255.5,286047001.9,N
1523960275.3,286046999.8,N
1523960295.2,286047002.8,N
1523960315.9,286047002.1,N
1523960335.7,286046999.8,N
1523960355.6,286046999.8,N
1523960375.4,286047001.9,N
1523960395.2,286047002.5,N
1523960415.1,286047001.9,N
1523960416.0,286047001.9,N
1523960435.8,286047004.3,Y
1523960455.7,286047000.5,P
1523960475.5,286047002.3,N
1523960495.3,286047002.2,N
1523960515.2,286047000.6,N
1523960535.0,286047000.1,N
1523960535.9,286047000.1,N
1523960555.8,286047000.5,N
1523960575.6,286046998.2,N
1523960595.4,286046998.3,N
1523960615.3,286046998.6,N
1523960635.1,286046998.1,N
1523960655.8,286046998.6,N
1523960675.7,286047001.1,N
1523960695.5,286047000.2,N
1523960715.4,286047002.3,N
1523960735.2,286046999.7,N
1523960755.0,286047002.3,N
1523960755.9,286047002.3,N
1523960775.8,286047002.1,N
1523960795.6,286047002.7,N
1523960815.5,286047000.5,N
1523960835.3,286046998.9,N
1523960855.1,286046998.4,N
1523960875.9,286047000.8,N
1523960895.7,286046998.1,N
1523960915.5,286047001.0,N
1523960935.4,286047000.8,N
1523960955.2,286046999.8,N
1523960975.1,286047002.8,N
1523960976.0,286047002.8,N
1523960995.8,286046999.7,N
1523961015.6,286047000.0,N
1523961035.5,286047000.4,N
1523961055.3,286047000.5,N
1523961075.2,286047002.2,N
1523961095.9,286047002.6,N
1523961115.7,286047002.6,N
1523961135.6,286047002.4,N
1523961155.4,286046998.1,N
1523961175.3,286047000.9,N
1523961195.1,286047002.8,N
1523961196.0,286047002.8,N
1523961215.8,286047001.9,N
1523961235.7,286047001.4,N
1523961255.5,286047001.8,N
1523961275.4,286047002.8,N
1523961295.2,286047002.0,N
1523961315.0,286047000.2,N
1523961315.9,286047000.2,N
1523961335.8,286047002.2,N
1523961355.6,286047002.4,N
1523961375.4,286047001.6,N
1523961395.3,286047000.1,N
1523961415.1,286047000.3,N
1523961435.9,286047002.4,N
1523961455.7,286047000.4,N
1523961475.5,286047002.8,N
1523961495.4,286046999.9,N
1523961515.2,286047000.7,N
1523961535.0,286046998.2,N
1523961535.9,286046998.2,N
1523961555.8,286046998.6,N
1523961575.6,286047000.3,N
1523961595.5,286047002.4,N
1523961615.3,286047002.3,N
1523961635.1,286047002.8,N
1523961655.9,286047002.1,N
1523961675.7,286047001.9,N
1523961695.5,286047002.5,N
1523961715.4,286047001.7,N
1523961735.2,286047001.7,N
1523961755.1,286047002.3,N
1523961756.0,286047002.3,N
1523961775.8,286047002.1,N
1523961795.6,286047002.0,N
1523961815.5,286047002.7,N
1523961835.3,286047001.8,N
1523961855.2,286047003.7,N
1523961875.9,286047003.7,N
1523961895.7,286047001.5,N
1523961915.6,286047004.0,N
1523961935.4,286047001.4,N
1523961955.2,286047004.0,N
1523961975.1,286047004.2,N
1523961976.0,286047004.2,N
1523961995.8,286047001.5,N
1523962015.7,286047001.3,N
1523962035.5,286047004.2,N
1523962055.3,286047002.2,N
1523962075.2,286047002.1,N
1523962095.0,286047002.2,N
1523962095.9,286047002.2,N
1523962115.8,286047001.9,N
1523962135.6,286046999.7,N
1523962155.4,286047000.5,N
1523962175.3,286047001.2,N
1523962195.1,286047000.9,N
1523962215.8,286046999.7,N
1523962235.7,286047001.3,N
1523962255.5,286047001.8,N
1523962275.4,286047003.2,N
1523962295.2,286047005.5,Y
1523962315.0,286047004.3,P
1523962315.9,286047004.3,P
1523962335.8,286047004.3,P
1523962355.6,286047003.5,Y
1523962375.5,286047000.9,P
1523962395.3,286046998.2,N
1523962415.1,286047000.9,N
1523962435.9,286046998.3,N
1523962455.7,286047000.8,N
1523962475.5,286046999.3,N
1523962495.4,286046999.6,N
1523962515.2,286046997.3,N
1523962535.1,286046997.7,N
1523962536.0,286046997.7,N
1523962555.8,286046997.1,N
1523962575.6,286046997.0,N
1523962595.5,286046999.6,N
1523962615.3,286046999.6,N
1523962635.2,286046999.6,N
1523962655.9,286046999.2,N
1523962675.7,286046999.2,N
1523962695.6,286046999.3,N
1523962715.4,286046997.4,N
1523962735.2,286046997.0,N
1523962755.1,286046999.6,N
1523962756.0,286046999.6,N
1523962775.8,286046999.5,N
1523962795.7,286046999.4,N
